When you browse on this site, cookies collect data to enhance your experience and personalize the content and advertising you see.
Visit our Privacy Policy to learn more. By continuing to use the site, you agree to this use of cookies and data.
  • In Austria
  • List of Countries
  • For 7 days
  • Water Temperature
  • Satellite Maps
  • Weather Map
  • News
  • Weather Widgets
  • user-avatar
    Login

    Hourly Weather Nagano

    Today, 19 February, Tuesday

    Time Temperature Precipitation Wind Pressure Humidity
    00:00 +1°C° 0 mm 1 mps 699 mmHg 67%
    01:00 +1°C° 0 mm 1 mps 699 mmHg 67%
    02:00 +1°C° 0 mm 1 mps 698 mmHg 67%
    03:00 +1°C° 0 mm 1 mps 698 mmHg 65%
    04:00 +2°C° 0 mm 1 mps 698 mmHg 64%
    05:00 +2°C° 0 mm 1 mps 698 mmHg 62%
    06:00 +2°C° 0 mm 1 mps 698 mmHg 61%
    07:00 +3°C° 0.1 mm 1 mps 698 mmHg 57%
    08:00 +4°C° 0.1 mm 1 mps 698 mmHg 53%
    09:00 +5°C° 0.1 mm 1 mps 698 mmHg 49%
    10:00 +5°C° 0.3 mm 2 mps 698 mmHg 52%
    11:00 +6°C° 0.3 mm 2 mps 697 mmHg 55%
    12:00 +6°C° 0.3 mm 2 mps 697 mmHg 58%
    13:00 +7°C° 0.3 mm 2 mps 696 mmHg 62%
    14:00 +7°C° 0.3 mm 2 mps 696 mmHg 65%
    15:00 +8°C° 0.3 mm 2 mps 695 mmHg 69%
    16:00 +7°C° 1.3 mm 2 mps 694 mmHg 75%
    17:00 +6°C° 1.3 mm 2 mps 693 mmHg 80%
    18:00 +5°C° 1.3 mm 2 mps 693 mmHg 86%
    19:00 +5°C° 0.4 mm 2 mps 692 mmHg 87%
    20:00 +6°C° 0.4 mm 2 mps 692 mmHg 87%
    21:00 +6°C° 0.4 mm 2 mps 692 mmHg 87%
    22:00 +6°C° 0.1 mm 2 mps 691 mmHg 88%
    23:00 +6°C° 0.1 mm 2 mps 691 mmHg 89%

    Tomorrow, 20 February, Wednesday

    Time Temperature Precipitation Wind Pressure Humidity
    00:00 +6°C° 0.1 mm 2 mps 691 mmHg 90%
    01:00 +6°C° 0 mm 2 mps 691 mmHg 90%
    02:00 +6°C° 0 mm 2 mps 691 mmHg 90%
    03:00 +6°C° 0 mm 2 mps 691 mmHg 91%
    04:00 +7°C° 0 mm 1 mps 691 mmHg 91%
    05:00 +7°C° 0 mm 1 mps 691 mmHg 91%
    06:00 +6°C° 0 mm 1 mps 691 mmHg 90%
    07:00 +7°C° 0 mm 1 mps 692 mmHg 86%
    08:00 +9°C° 0 mm 1 mps 692 mmHg 82%
    09:00 +10°C° 0 mm 1 mps 693 mmHg 77%
    10:00 +11°C° 0 mm 1 mps 693 mmHg 71%
    11:00 +12°C° 0 mm 2 mps 693 mmHg 65%
    12:00 +13°C° 0 mm 2 mps 693 mmHg 59%
    13:00 +13°C° 0 mm 2 mps 693 mmHg 58%
    14:00 +12°C° 0 mm 2 mps 693 mmHg 56%
    15:00 +12°C° 0 mm 2 mps 692 mmHg 55%
    16:00 +9°C° 0 mm 2 mps 692 mmHg 60%
    17:00 +7°C° 0 mm 2 mps 692 mmHg 65%
    18:00 +5°C° 0 mm 2 mps 692 mmHg 71%
    19:00 +5°C° 0.1 mm 2 mps 693 mmHg 72%
    20:00 +4°C° 0.1 mm 2 mps 693 mmHg 73%
    21:00 +4°C° 0.1 mm 1 mps 693 mmHg 74%
    22:00 +3°C° 0 mm 2 mps 694 mmHg 73%
    23:00 +2°C° 0 mm 2 mps 694 mmHg 72%

    Day after tomorrow, 21 February, Thursday

    Time Temperature Precipitation Wind Pressure Humidity
    00:00 +1°C° 0 mm 2 mps 694 mmHg 72%
    01:00 -1°C° 0 mm 2 mps 694 mmHg 71%
    02:00 +1°C° 0 mm 1 mps 694 mmHg 70%
    03:00 0°C° 0 mm 1 mps 694 mmHg 69%
    04:00 0°C° 0 mm 1 mps 694 mmHg 70%
    05:00 0°C° 0 mm 1 mps 694 mmHg 71%
    06:00 -1°C° 0 mm 1 mps 695 mmHg 71%
    07:00 +1°C° 0 mm 1 mps 695 mmHg 66%
    08:00 +2°C° 0 mm 1 mps 696 mmHg 62%
    09:00 +3°C° 0 mm 1 mps 696 mmHg 57%
    10:00 +3°C° 0 mm 2 mps 696 mmHg 54%
    11:00 +5°C° 0 mm 2 mps 696 mmHg 52%
    12:00 +6°C° 0 mm 2 mps 696 mmHg 49%
    13:00 +6°C° 0 mm 2 mps 696 mmHg 51%
    14:00 +5°C° 0 mm 3 mps 696 mmHg 52%
    15:00 +5°C° 0 mm 3 mps 696 mmHg 54%
    16:00 +4°C° 0 mm 2 mps 696 mmHg 60%
    17:00 +3°C° 0 mm 2 mps 696 mmHg 66%
    18:00 +1°C° 0 mm 2 mps 696 mmHg 72%
    19:00 +1°C° 0 mm 2 mps 697 mmHg 74%
    20:00 +1°C° 0 mm 1 mps 697 mmHg 77%
    21:00 +1°C° 0 mm 1 mps 698 mmHg 79%
    22:00 +1°C° 0 mm 1 mps 697 mmHg 79%
    23:00 0°C° 0 mm 1 mps 697 mmHg 79%

    22 February, Friday

    Time Temperature Precipitation Wind Pressure Humidity
    00:00 0°C° 0 mm 1 mps 697 mmHg 80%
    01:00 0°C° 0 mm 1 mps 697 mmHg 78%
    02:00 0°C° 0 mm 1 mps 697 mmHg 77%
    03:00 -1°C° 0 mm 1 mps 697 mmHg 76%
    04:00 -1°C° 0 mm 1 mps 697 mmHg 75%
    05:00 -1°C° 0 mm 1 mps 697 mmHg 74%
    06:00 -1°C° 0 mm 1 mps 697 mmHg 72%
    07:00 +1°C° 0 mm 1 mps 697 mmHg 66%
    08:00 +3°C° 0 mm 1 mps 698 mmHg 60%
    09:00 +5°C° 0 mm 1 mps 698 mmHg 53%
    10:00 +7°C° 0 mm 1 mps 698 mmHg 48%
    11:00 +9°C° 0 mm 1 mps 698 mmHg 43%
    12:00 +11°C° 0 mm 1 mps 697 mmHg 38%
    13:00 +11°C° 0 mm 1 mps 697 mmHg 40%
    14:00 +11°C° 0 mm 1 mps 696 mmHg 42%
    15:00 +11°C° 0 mm 1 mps 695 mmHg 43%
    16:00 +9°C° 0 mm 1 mps 694 mmHg 52%
    17:00 +8°C° 0 mm 1 mps 694 mmHg 61%
    18:00 +6°C° 0 mm 1 mps 693 mmHg 69%
    19:00 +6°C° 0.2 mm 1 mps 693 mmHg 72%
    20:00 +5°C° 0.2 mm 1 mps 693 mmHg 75%
    21:00 +5°C° 0.2 mm 1 mps 692 mmHg 78%
    22:00 +5°C° 1.5 mm 1 mps 692 mmHg 80%
    23:00 +5°C° 1.5 mm 1 mps 691 mmHg 83%

    23 February, Saturday

    Time Temperature Precipitation Wind Pressure Humidity
    00:00 +5°C° 1.5 mm 1 mps 691 mmHg 85%
    01:00 +4°C° 1.4 mm 1 mps 690 mmHg 86%
    02:00 +4°C° 1.4 mm 1 mps 689 mmHg 86%
    03:00 +4°C° 1.4 mm 1 mps 688 mmHg 87%
    04:00 +2°C° 1.2 mm 2 mps 687 mmHg 88%
    05:00 +2°C° 1.2 mm 2 mps 686 mmHg 89%
    06:00 0°C° 1.2 mm 3 mps 685 mmHg 90%
    07:00 0°C° 1.1 mm 3 mps 686 mmHg 89%
    08:00 0°C° 1.1 mm 3 mps 686 mmHg 89%
    09:00 +1°C° 1.1 mm 2 mps 686 mmHg 88%
    10:00 0°C° 0.2 mm 3 mps 686 mmHg 86%
    11:00 +1°C° 0.2 mm 3 mps 687 mmHg 83%
    12:00 +2°C° 0.2 mm 3 mps 687 mmHg 80%
    13:00 +1°C° 0.2 mm 4 mps 687 mmHg 79%
    14:00 0°C° 0.2 mm 4 mps 687 mmHg 77%
    15:00 0°C° 0.2 mm 4 mps 687 mmHg 76%
    16:00 -1°C° 0 mm 4 mps 688 mmHg 77%
    17:00 -1°C° 0 mm 3 mps 688 mmHg 78%
    18:00 -2°C° 0 mm 3 mps 689 mmHg 79%
    19:00 -3°C° 0 mm 2 mps 690 mmHg 79%
    20:00 -3°C° 0 mm 2 mps 691 mmHg 80%
    21:00 -4°C° 0 mm 2 mps 691 mmHg 80%
    22:00 -4°C° 0 mm 2 mps 692 mmHg 81%
    23:00 -5°C° 0 mm 2 mps 692 mmHg 81%

    24 February, Sunday

    Time Temperature Precipitation Wind Pressure Humidity
    00:00 -5°C° 0 mm 2 mps 693 mmHg 81%
    01:00 -5°C° 0 mm 2 mps 693 mmHg 81%
    02:00 -4°C° 0 mm 1 mps 693 mmHg 81%
    03:00 -4°C° 0 mm 1 mps 694 mmHg 82%
    04:00 -4°C° 0 mm 1 mps 694 mmHg 82%
    05:00 -4°C° 0 mm 1 mps 695 mmHg 82%
    06:00 -3°C° 0 mm 1 mps 696 mmHg 83%
    07:00 -2°C° 0 mm 1 mps 696 mmHg 79%
    08:00 -1°C° 0 mm 1 mps 697 mmHg 74%
    09:00 +1°C° 0 mm 1 mps 698 mmHg 70%
    10:00 +3°C° 0 mm 1 mps 698 mmHg 67%
    11:00 +4°C° 0 mm 1 mps 698 mmHg 64%
    12:00 +6°C° 0 mm 1 mps 698 mmHg 60%
    13:00 +6°C° 0 mm 1 mps 698 mmHg 60%
    14:00 +7°C° 0 mm 1 mps 698 mmHg 59%
    15:00 +6°C° 0 mm 0 mps 698 mmHg 59%
    16:00 +4°C° 0 mm 0 mps 697 mmHg 63%
    17:00 +3°C° 0 mm 0 mps 697 mmHg 68%
    18:00 +1°C° 0 mm 0 mps 697 mmHg 72%
    19:00 +1°C° 0 mm 1 mps 697 mmHg 74%
    20:00 +1°C° 0 mm 1 mps 698 mmHg 75%
    21:00 0°C° 0 mm 1 mps 698 mmHg 76%
    22:00 0°C° 0 mm 1 mps 698 mmHg 76%
    23:00 0°C° 0 mm 1 mps 698 mmHg 76%
    Show more